STARLINK-35158 (66381 NORAD) Tracking and Keplerian Element Data

This shows tracking and keplerian element data for the satellite.

Feedback or suggestion? Click here.




ElementValue
Catalog66381
NameSTARLINK-35158
Epoch Orbit748
Epoch Day353.98072752
Epoch Year2025
RAAN230.5321
Inclination53.159
Eccentricity0.0001745
Argument of Perigee71.2885
Mean Anonmoly288.8309
Mean Motion15.39633146
Decay Rate0.0003111
L11 66381U 25257B 25353.98072752 .00031110 00000+0 78421-3 0 9993
L22 66381 53.1590 230.5321 0001745 71.2885 288.8309 15.39633146 7481



Live tracking and technical data element details for STARLINK-35158 (NORAD 66381). STARLINK-35158 can be tracked NOW for your location showing map with azimuth and elevation plus other details from your city location.







IsCatalogInMostPopularTable: catalog: 66381, numindb: 3
Update: records affected: 1



GetName: 66381 STARLINK-35158

Hit Count: updated at: Tue, 10 Feb 2026 03:03:12 GMT